Tracking 35048 objects as of 19-Aug-2026
HD Live streaming from Space Station
objects crossing your sky now

FREGAT DEB


10-day predictions


NORAD ID: 45882
Int'l Code: 2011-037DB
Launch date: July 18, 2011
Source: Commonwealth of Independent States (former USSR) (CIS)
Launch site: TYURATAM MISSILE AND SPACE COMPLEX (TTMTR)

Note: This is SATELLITE DEBRIS
Your satellite tracking list
Your tracking list is empty




NASA's NSSDC Master Catalog

Two Line Element Set (TLE):
1 45882U 11037DB  21178.19614409  .00033395  00000-0  13062+0 0  9996
2 45882  52.1370 116.1252 2519605 133.8842 249.9793  9.24353934 32518
Source of the keplerian elements: AFSPC